Regional Weather Roundup
Issued by NWS

Home | Current Version | Previous Version | Graphics & Text | Print | Product List | Glossary On
Versions: 1 2 3 4 5 6 7 8 9 10 11 12 13 14 15 16 17 18 19 20 21 22 23 24 25 26 27 28 29 30 31 32 33 34 35 36 37 38 39 40 41 42 43 44 45 46 47 48 49 50
000
ASUS43 KBIS 280602
RWRND

NORTH DAKOTA REGIONAL WEATHER ROUNDUP
NATIONAL WEATHER SERVICE BISMARCK ND
1200 AM CST TUE FEB 28 2017

NOTE: "FAIR" INDICATES FEW OR NO CLOUDS BELOW 12,000 FEET WITH NO
SIGNIFICANT WEATHER AND/OR OBSTRUCTIONS TO VISIBILITY.


NDZ001>003-009>011-017-280700-
NORTHWEST NORTH DAKOTA

CITY           SKY/WX    TMP DP  RH WIND       PRES   REMARKS
WILLISTON      FAIR       4   1  88 NE3       29.84S
6HR MIN TEMP:   3; 6HR MAX TEMP:  16;

MINOT          CLOUDY     4  -1  80 W3        29.87F
MINOT AFB      CLOUDY    -4  -8  84 NW5       29.88S WCI -15
$$

NDZ018>021-031>035-040>046-280700-
SOUTHWEST NORTH DAKOTA

CITY           SKY/WX    TMP DP  RH WIND       PRES   REMARKS
BISMARCK       CLOUDY    20  16  84 NE7       29.85S WCI  11
6HR MIN TEMP:  20; 6HR MAX TEMP:  21;

DICKINSON      CLOUDY    14  11  87 E7        29.76R WCI   4
GARRISON         N/A     -4  -7  87 N7        29.85S WCI -18
6HR MIN TEMP:  -5; 6HR MAX TEMP:  13;

HETTINGER ARPT CLOUDY    18  16  92 E9        29.78R WCI   7
$$

NDZ004>008-012>016-024-026-027-054-280700-
NORTHEAST NORTH DAKOTA

CITY           SKY/WX    TMP DP  RH WIND       PRES   REMARKS
GRAND FORKS    CLOUDY    17  10  74 N13       29.92F WCI   4
GRND FRKS AFB  CLOUDY    15  10  82 N12       29.93S WCI   2
$$

NDZ022-023-025-028>030-036>039-047>053-280700-
SOUTHEAST NORTH DAKOTA

CITY           SKY/WX    TMP DP  RH WIND       PRES   REMARKS
FARGO          CLOUDY    23  20  88 N15       29.87R WCI  10
6HR MIN TEMP:  23; 6HR MAX TEMP:  30;

JAMESTOWN      CLOUDY    19  16  88 NE13      29.84F WCI   6
$$





USA.gov is the U.S. government's official web portal to all federal, state and local government web resources and services.